COSMOS 2251 DEB, 35895

Orbit data source: Space-Track

COSMOS 2251 DEB, 35895 is space debris in LEO originally from a launch on Wed, 16 Jun 1993 UTC launched from the Plesetsk Missile And Space Complex (PKMTR). The debris from Iridium 33, an American commercial communications satellite, has been tracked extensively since its accidental collision with the defunct Russian satellite Cosmos 2251 in 2009. This event, occurring at high speed in low Earth orbit (LEO), generated thousands of pieces of space debris, significantly increasing the risk of further collisions. The Iridium 33 debris cloud has impacted space traffic management and orbital debris mitigation strategies, making it a subject of ongoing study in space situational awareness.

Loading next visibility...
Identifier
35895, 1993-036AUJ
Orbit
LEO
Country
Flag of CISCIS
Related business
Manufacturer
Unknown
Mission
Spacecraft
Bus & Motor
Unknown
Mass
Unknown
Launch date (UTC)
1993-06-16 (33 years ago)
Launch vehicle
Unknown
Launch site
Plesetsk Missile And Space Complex (PKMTR)
Object type
Payload
Rocket body
Debris
Shape & HBR
Unknown shape, 0.1 m
Radar Cross Section
Small (<0.1 m²)

Expand to show TLE details & history
Last TLE update: 4 days ago

TLE from 4 days ago
0 COSMOS 2251 DEB
1 35895U 93036AUJ 26204.04340155  .00000757  00000-0  42041-3 0  9990
2 35895  74.0479 321.5990 0205974   7.9932 352.4399 14.02592910621286
Epoch: 2026-07-23T01:02Z
TLE epoch observation values (Epoch: 2026-07-23T01:02:29.893Z)
Latitude
-0.00005°
Longitude
5.18438°
Altitude
739.135 km
Speed
7.561 km/s
True Right ascension
21h 26m 23s
True Declination
0° 00' 00"
Sunlit
Object was in full shadow at epoch
Visualization orbit readout
Latitude
Unknown
Longitude
Unknown
Altitude
Unknown
Speed
Unknown
Apparent Right ascension
Unknown
Apparent Declination
Unknown
Sunlit
N/A
Visualization observer readout
Local Sidereal Time
00:48:36
Azimuth
Unknown
Elevation
Unknown
Doppler factor
Unknown
Orbital elements
Apogee altitude
1,032.039 km
Perigee altitude
732.939 km
Semi-major axis
7,260.626 km
Eccentricity
0.0206
Inclination
74.0479°
RAAN
321.599°
Arg. of periapsis
7.9932°
True anomaly
352.12124°
Mean anomaly
352.4399°
Eccentric anomaly
352.2814°
Mean motion
3.50818 °/min
Orbital period
102.62 mins
BSTAR
0.00042041
Loading maneuver chart data...
Computing Atmospheric mass density...

Documentation

Showing up to 5 results
|